Temp
14 14 15 16 16 16 16 16 16 16 16 17 17 17 17 18 18 18 18 18 19 18 19 20 19 19 19 18 18 18 18 18 17 15 16 22 25 24 25 25 25 25 24 24 24 23 23 23 24 24 25 25 25 25 26 27 28 27 27 25 24 25 26 28 29 28 27 26 25 25 25 26 26 25 25 25 24 24 24 24 27 28 27 27 27 27 27 27
15 15 15 16 16 16 16 16 16 16 16 16 17 17 17 18 18 18 18 18 18 18 19 19 19 19 19 19 18 18 18 16 15 15 20 25 25 24 25 24 25 25 24 24 24 24 23 24 24 25 25 25 25 26 27 28 29 27 27 26 25 27 28 30 29 28 27 27 25 25 25 25 26 25 25 25 25 24 23 24 27 27 27 27 27 27 27 27
17 17 17 17 16 16 17 17 17 16 16 16 17 17 18 18 18 18 18 19 18 18 18 19 19 19 19 19 18 18 16 15 17 20 25 26 25 25 25 24 24 25 25 25 25 25 24 25 25 25 25 25 26 26 27 28 29 29 28 26 27 28 29 30 29 28 28 27 26 25 25 25 26 25 25 25 25 24 24 26 27 26 27 27 27 27 27 27
17 17 18 18 17 16 17 17 17 17 17 17 17 17 18 18 18 18 18 19 18 18 18 19 19 19 19 18 18 18 15 17 23 25 26 26 26 26 25 24 24 24 25 25 25 25 25 25 25 26 25 25 26 27 27 28 29 30 29 28 29 29 29 30 29 28 28 27 26 26 25 25 26 26 25 25 24 23 25 27 27 26 27 27 27 27 27 27
16 17 17 17 17 16 17 17 17 17 17 17 17 17 18 18 18 18 18 18 19 18 18 18 19 18 18 18 18 17 16 22 26 26 27 27 26 26 25 24 24 24 25 25 25 25 25 25 25 26 26 25 26 26 27 28 29 30 30 30 30 30 30 30 29 28 27 27 27 26 26 26 26 26 26 26 25 25 27 28 28 27 28 27 28 28 28 27
15 17 17 17 17 16 17 17 18 18 18 18 18 18 18 18 18 18 18 18 19 18 18 18 18 18 18 18 18 16 19 25 26 26 28 27 27 26 25 25 24 24 25 25 25 25 25 25 25 25 26 26 26 27 27 29 30 29 30 31 31 31 31 30 29 28 28 27 27 26 27 27 26 27 27 27 27 28 28 29 28 28 28 28 28 28 28 27
15 17 17 16 16 17 17 18 18 18 18 18 18 18 19 19 19 18 18 18 18 18 18 18 18 18 18 18 17 17 20 24 26 27 27 27 27 26 25 24 24 24 24 24 24 25 25 25 25 26 26 26 27 28 28 30 30 30 30 31 32 32 32 31 29 29 28 28 27 27 27 27 26 27 28 28 28 27 28 29 28 28 29 29 28 28 28 28
14 16 16 16 16 17 17 18 18 18 18 18 18 19 19 19 19 19 18 18 18 18 17 17 18 18 18 18 18 19 21 25 27 27 27 27 27 26 25 24 23 24 24 24 24 25 25 25 26 26 26 27 28 29 29 30 30 30 30 31 32 32 33 32 30 29 29 28 28 27 27 27 27 28 28 28 28 27 28 29 28 28 29 29 28 28 29 28
14 16 16 16 16 16 17 18 18 18 18 18 19 19 19 19 19 19 19 18 18 18 17 17 18 18 18 17 18 22 25 27 28 27 27 27 27 26 25 24 24 24 24 24 24 25 25 26 26 27 27 28 29 30 30 30 29 31 31 32 32 33 33 32 30 29 29 28 28 27 27 27 27 28 28 29 28 27 28 29 28 28 28 28 28 28 29 28
13 16 16 16 16 17 18 18 18 19 19 19 19 19 19 19 20 19 19 19 18 18 17 17 18 18 18 18 19 24 27 28 28 27 27 27 27 26 25 25 24 24 24 24 24 25 26 26 27 28 28 28 30 30 31 30 30 32 32 32 33 33 33 33 31 30 29 28 28 28 28 27 27 28 28 29 29 28 28 29 28 28 28 28 29 29 29 29
13 16 16 16 17 18 18 19 19 19 19 19 19 19 20 20 20 20 19 19 19 18 18 18 18 18 18 18 21 25 28 28 28 27 26 27 27 26 25 25 24 24 24 24 24 25 26 27 28 28 28 29 30 30 31 31 31 32 32 32 33 33 34 33 31 30 29 28 29 30 29 28 27 27 29 30 30 29 29 28 28 28 28 28 29 29 29 29
14 16 16 16 17 18 18 19 19 20 20 19 19 20 20 20 20 20 20 20 19 19 19 18 18 18 17 18 20 25 28 28 28 28 27 27 28 28 27 26 25 25 25 25 25 26 26 27 27 27 28 29 29 30 31 31 32 32 32 32 32 34 33 34 32 30 30 29 29 30 28 27 27 27 30 30 30 30 29 28 28 28 28 28 29 28 28 29
14 16 16 16 17 18 18 19 19 20 20 20 20 20 20 21 21 21 20 20 20 20 19 18 18 17 17 20 23 26 28 28 28 28 28 28 28 28 27 27 27 26 26 26 26 27 27 27 28 27 28 28 28 30 31 31 31 31 32 31 32 32 32 34 33 30 30 30 30 30 25 25 28 28 30 31 30 30 29 28 28 28 28 28 28 28 28 29
14 16 15 16 17 18 18 19 19 20 20 20 20 21 21 21 21 21 21 21 21 20 19 18 18 17 18 22 26 27 27 28 28 28 28 28 28 28 28 28 27 26 26 26 27 28 28 28 28 28 29 29 29 31 31 31 31 31 31 31 31 28 28 34 34 31 31 30 31 31 25 25 29 29 30 31 31 30 29 28 28 28 28 28 28 28 28 28
14 15 15 16 17 18 18 18 19 19 20 20 20 21 22 22 22 22 22 21 21 20 20 18 17 17 18 22 26 27 27 28 28 28 29 29 29 28 28 28 27 27 27 27 28 28 29 29 28 28 28 30 30 30 29 29 30 31 28 26 29 27 28 34 35 33 32 30 31 31 26 26 29 30 31 31 31 30 29 29 29 28 28 28 28 28 28 28
14 15 15 16 17 18 18 18 18 19 19 20 21 22 23 23 22 23 22 22 21 21 20 19 18 18 20 24 26 27 27 28 28 29 29 29 29 29 29 28 28 27 27 28 28 29 29 29 28 28 29 30 30 29 28 27 27 30 27 24 26 27 27 31 34 35 33 30 31 31 28 28 30 31 31 31 31 31 30 29 29 28 28 28 28 28 28 28
15 15 15 16 17 18 18 18 18 19 19 20 21 23 23 23 23 23 22 21 21 20 19 19 18 18 21 25 26 27 27 28 29 29 29 29 29 29 29 28 28 28 28 28 29 29 28 28 28 29 29 29 29 29 26 23 22 26 27 25 26 27 27 28 31 34 34 31 31 32 31 30 30 31 31 31 31 31 30 30 30 29 29 29 29 29 29 28
15 15 16 17 18 18 18 18 18 19 20 20 21 22 23 23 22 22 22 21 20 19 19 19 19 20 23 25 26 27 28 29 29 29 29 29 29 29 29 28 28 28 28 28 28 28 28 28 28 28 28 28 29 28 23 22 23 24 25 25 25 27 27 27 30 33 34 33 32 31 31 30 30 31 31 31 31 31 30 30 30 30 29 29 29 29 29 29
14 15 16 16 17 18 19 18 18 19 20 21 22 23 23 23 22 22 22 21 21 21 21 20 20 22 24 25 26 28 29 29 29 29 29 29 29 29 29 29 28 28 27 27 27 27 27 27 27 26 26 26 28 27 25 26 27 26 26 26 25 25 27 29 31 33 34 34 33 32 30 30 30 30 31 31 31 31 30 30 30 29 30 29 29 29 29 29
14 15 16 16 17 18 19 19 19 18 19 21 22 22 23 22 22 22 22 21 21 22 23 22 22 23 24 24 26 28 29 29 29 29 29 29 29 29 29 28 28 27 27 26 26 27 27 26 25 25 25 26 27 28 28 28 29 28 28 27 26 25 26 30 32 33 35 33 32 33 31 30 30 30 31 31 31 31 30 30 30 29 30 29 29 29 29 29
15 15 16 16 17 18 19 19 19 19 20 21 20 20 21 22 21 21 21 22 22 22 22 23 23 23 24 25 26 28 28 28 28 29 29 29 29 28 28 28 27 26 26 27 26 27 27 25 24 26 26 27 28 28 29 29 29 29 27 26 26 26 26 30 32 32 35 33 31 33 31 30 31 30 31 31 31 30 30 30 29 29 29 29 29 30 29 30
15 15 16 17 17 18 19 19 20 19 20 20 20 19 20 22 22 22 22 21 21 22 22 23 24 24 25 26 27 28 28 27 28 28 29 28 28 27 27 27 26 26 27 27 26 26 25 24 25 27 27 28 28 29 29 29 29 28 27 26 24 26 28 29 32 33 34 32 31 33 31 29 31 31 31 31 31 30 30 30 30 29 29 29 29 29 29 29
15 15 16 17 17 18 19 19 19 19 20 19 18 19 21 23 23 23 22 21 21 23 23 23 24 24 25 26 28 29 27 27 27 28 29 28 27 27 27 26 26 26 26 26 26 24 23 24 27 27 28 28 28 28 29 28 28 28 27 25 23 27 27 26 29 33 34 33 32 33 30 30 31 31 31 31 31 31 30 30 30 29 29 29 29 30 29 29
14 14 15 16 17 18 19 19 20 19 20 20 19 20 22 23 23 23 22 21 21 22 23 24 25 26 26 27 28 28 27 27 27 28 29 28 28 28 27 27 26 26 26 26 26 25 24 26 28 27 28 28 28 28 29 27 26 27 28 26 25 28 28 27 29 32 32 32 34 32 27 27 30 30 30 31 31 31 30 30 30 29 30 30 30 30 30 30
14 14 14 15 16 17 19 19 19 20 19 21 21 22 23 23 23 23 21 20 21 22 24 25 26 26 27 27 28 28 27 27 28 28 29 29 28 28 27 27 27 26 26 26 26 25 26 28 28 28 27 28 27 28 28 27 25 26 28 29 28 29 30 30 31 30 27 27 32 32 23 23 28 29 30 31 30 30 29 29 29 29 30 29 30 30 30 30
13 14 14 14 15 17 18 19 19 19 19 20 22 22 22 22 23 22 21 20 21 24 25 25 25 26 27 27 27 28 27 27 28 29 29 29 29 28 27 27 27 27 27 28 27 26 27 28 28 28 28 28 28 27 28 29 25 24 28 31 31 31 30 30 30 28 24 24 31 33 25 22 25 28 30 31 30 30 29 29 29 29 29 29 30 30 30 30
13 14 14 14 14 15 16 18 18 18 19 21 21 22 22 22 22 22 21 19 21 24 25 25 25 26 26 27 27 27 25 26 28 29 29 29 28 28 27 27 27 27 28 28 25 26 28 28 28 28 28 28 27 26 28 30 26 24 29 32 31 31 30 30 29 26 26 27 30 32 29 23 22 26 31 31 30 29 29 28 29 29 29 29 30 30 30 30
14 15 14 14 15 14 14 16 15 16 20 21 21 22 22 22 22 21 20 20 22 25 25 25 25 26 26 27 27 27 26 27 27 28 29 29 28 28 27 27 27 26 28 26 23 25 28 28 28 28 28 27 27 28 29 30 27 27 31 32 31 32 31 31 29 26 28 27 24 27 29 24 22 26 31 31 29 28 28 29 29 29 29 29 30 30 30 30
15 15 15 15 16 15 15 15 15 17 21 21 21 21 22 22 21 21 20 20 23 25 25 25 25 26 27 27 27 27 27 27 27 27 29 28 28 28 27 27 27 27 27 27 25 26 28 28 29 29 28 27 28 30 30 30 29 30 32 31 31 32 32 31 30 27 26 25 22 24 27 24 22 25 28 29 27 27 29 29 29 29 29 29 30 30 31 31
16 16 15 15 16 16 15 15 17 20 21 21 21 21 21 21 21 20 20 21 24 25 25 25 25 26 27 26 26 27 27 27 28 28 28 28 28 28 28 28 28 27 27 27 26 27 28 28 29 29 29 29 30 30 30 30 31 31 32 31 30 30 31 31 29 27 24 22 23 24 26 25 23 24 26 28 28 29 30 29 29 30 29 30 30 30 31 31
17 16 16 16 16 16 15 17 20 21 21 21 21 21 21 21 20 20 20 23 24 24 25 25 25 26 26 26 26 26 27 27 28 28 27 28 27 27 27 27 26 26 25 25 26 27 28 28 29 30 30 30 30 30 30 31 31 31 31 30 27 26 27 26 25 25 23 22 23 25 27 25 22 24 28 30 31 31 30 30 30 30 30 30 30 30 31 31
17 18 18 18 18 17 17 19 21 21 20 20 20 21 21 20 20 20 21 23 23 23 25 26 26 26 26 26 26 26 27 27 27 27 27 27 25 25 25 24 24 23 22 23 24 25 27 28 28 29 30 30 29 28 29 31 31 31 30 27 23 22 23 22 22 23 22 22 24 26 26 24 23 27 31 32 32 32 31 31 31 30 30 30 30 30 31 31
18 19 19 19 19 19 20 21 21 20 20 20 20 21 21 20 20 21 21 22 22 23 26 26 26 27 26 26 26 26 27 26 27 27 27 26 25 24 24 24 24 23 22 22 22 22 24 26 27 28 29 28 27 26 25 26 29 29 27 25 22 22 22 21 22 22 22 22 24 27 26 23 23 29 33 33 33 33 32 32 31 31 31 30 30 31 31 31
19 19 20 20 20 20 21 21 21 20 19 19 20 21 20 20 20 21 22 22 23 25 25 25 26 26 26 26 26 26 26 25 26 26 25 25 24 23 23 23 23 23 23 22 21 21 21 23 25 26 26 27 27 26 25 26 27 28 30 28 24 22 22 22 22 22 22 22 24 25 25 23 23 29 34 34 34 34 33 33 32 31 31 31 31 31 31 31
20 20 21 21 21 21 22 21 21 20 18 19 20 20 20 20 20 21 21 22 24 24 24 25 25 25 25 25 26 26 25 25 26 25 23 22 22 22 22 22 23 23 23 22 21 21 21 21 24 25 26 26 25 25 27 27 26 28 31 28 24 25 25 22 22 23 22 22 23 23 24 25 28 32 36 35 33 34 33 33 33 32 31 31 31 31 31 31
21 21 21 21 21 22 22 22 21 20 18 20 20 20 20 21 21 22 22 23 23 23 24 24 24 23 22 24 25 25 25 25 26 25 22 22 21 21 22 22 22 23 23 22 21 21 20 21 24 25 26 26 24 25 27 26 25 27 28 25 26 30 28 23 22 23 23 22 23 23 23 26 29 32 35 35 34 34 33 33 33 32 32 31 31 31 31 31
21 21 20 21 22 22 23 22 21 20 19 20 19 20 21 22 22 23 23 23 23 24 23 22 22 22 21 22 23 24 25 25 25 24 22 22 21 20 21 22 22 23 23 23 22 22 21 21 23 25 25 25 25 26 27 26 25 25 24 24 28 30 29 25 22 22 22 21 22 23 23 24 24 26 33 36 35 34 33 32 33 32 32 31 31 31 31 31
18 18 19 21 23 23 23 22 21 20 20 20 20 21 22 23 23 23 23 23 24 24 23 21 22 22 21 21 21 23 24 23 23 23 22 21 21 20 21 21 22 23 22 23 22 21 22 21 22 24 23 23 26 26 25 25 26 25 24 26 26 24 24 24 22 22 22 21 22 23 23 23 23 25 31 34 35 35 34 32 32 32 32 31 31 31 31 32
16 18 20 23 23 23 23 23 22 21 20 20 20 21 23 23 23 24 23 23 23 23 22 21 22 22 21 21 21 22 23 22 22 22 21 20 20 20 21 21 22 22 22 22 20 20 22 21 21 23 22 23 25 24 22 22 24 25 25 26 26 24 23 23 23 23 22 21 22 22 22 23 25 28 30 32 33 34 35 33 32 32 32 31 31 32 32 32
16 18 21 23 23 23 23 23 22 21 20 20 21 22 23 23 23 24 24 24 23 23 22 22 22 21 21 21 21 22 22 22 22 21 20 20 20 20 21 21 22 22 22 21 19 20 21 21 20 21 22 22 23 22 21 21 22 23 23 23 23 24 24 24 24 24 22 22 22 22 22 22 26 30 30 30 30 31 32 33 32 32 32 32 32 32 32 32
15 19 21 23 24 23 23 22 21 21 20 21 22 22 23 23 23 23 23 23 23 23 23 22 21 21 21 21 21 21 22 22 22 21 20 20 20 20 21 21 21 21 21 20 19 19 20 20 20 20 20 21 21 22 23 23 23 23 22 22 22 22 22 22 22 23 23 22 22 22 22 22 26 29 29 29 29 29 31 32 32 32 32 32 32 32 32 32
16 20 22 23 24 23 23 22 21 21 21 22 22 22 23 23 22 22 22 22 22 22 23 22 22 21 21 21 21 21 21 21 21 21 20 20 20 20 21 21 21 21 20 19 19 19 19 19 19 19 19 20 20 22 22 23 24 23 22 22 23 22 22 20 20 21 21 22 22 22 22 23 27 28 28 28 29 29 29 31 32 32 32 33 33 33 33 32
16 19 22 23 23 23 22 21 21 21 22 23 23 23 23 22 21 21 22 22 22 22 22 22 21 21 21 22 22 21 21 21 20 20 20 20 20 21 21 22 21 21 20 19 19 20 20 19 18 18 19 20 21 22 22 22 23 22 21 22 22 22 22 22 21 22 21 21 21 22 21 23 26 28 27 27 28 28 28 29 30 30 31 32 32 32 33 32
14 15 19 22 23 23 21 20 20 20 21 22 22 22 22 22 21 21 21 21 21 21 21 21 21 21 21 21 21 20 20 20 20 20 20 20 20 21 21 21 21 20 20 19 19 20 19 18 18 18 19 19 21 21 21 20 20 20 20 22 22 22 23 23 22 22 21 21 21 21 21 22 25 27 27 26 26 27 27 27 27 28 29 29 29 30 32 32
14 16 18 21 22 22 21 20 20 19 20 20 20 20 21 21 21 21 21 21 21 21 21 21 21 21 20 20 20 19 19 19 19 19 19 19 20 20 20 21 21 21 21 21 21 20 19 18 18 17 17 18 18 18 18 18 19 20 21 21 22 22 22 22 21 21 21 20 21 21 20 22 25 27 27 26 25 26 26 26 26 26 26 27 26 27 28 29
17 18 19 20 20 21 20 20 20 19 19 19 19 20 20 20 21 21 21 20 20 21 21 20 20 20 19 19 19 18 19 19 19 18 18 18 19 20 20 20 21 22 22 21 21 20 19 18 18 17 17 17 17 17 18 19 19 19 20 21 21 22 22 22 21 20 20 20 20 21 21 21 23 25 26 25 25 24 24 24 25 25 25 25 25 25 25 25
17 18 18 17 18 20 20 20 20 19 19 19 19 19 19 19 19 20 21 20 20 20 20 19 19 19 18 18 18 18 18 19 18 18 18 18 18 19 20 20 20 21 22 21 21 20 18 18 18 18 17 18 18 18 19 19 19 19 20 20 21 21 22 22 21 20 21 20 20 22 22 21 22 24 25 24 23 23 22 22 23 23 23 24 24 24 24 23
17 17 18 17 17 19 19 19 20 19 19 19 19 19 18 18 18 18 19 20 19 19 19 18 18 18 18 18 18 18 17 17 17 17 17 17 17 18 19 19 20 20 21 20 20 20 18 18 18 18 18 18 18 18 19 19 19 19 19 20 21 21 21 21 21 21 21 20 20 22 22 22 22 23 22 22 23 23 21 20 21 21 22 22 22 22 22 22
15 16 17 17 17 18 18 19 19 18 18 19 18 18 18 18 18 18 18 19 18 18 18 17 17 17 18 18 18 17 16 16 16 16 17 17 17 17 17 18 19 19 19 20 20 19 18 18 18 18 17 18 18 18 18 18 19 19 19 20 21 21 22 22 22 22 22 21 22 23 22 23 23 22 21 21 22 22 21 20 20 20 20 21 21 21 21 21
14 15 15 15 17 18 19 19 18 18 18 18 18 18 18 17 17 18 18 18 17 17 18 17 17 18 17 17 17 16 16 16 16 16 17 16 17 17 17 17 18 18 18 19 19 19 18 18 18 18 17 17 17 18 18 18 18 18 19 19 20 21 22 22 22 23 22 21 23 23 22 22 23 23 21 20 20 21 21 20 19 20 19 20 20 20 20 20
13 14 14 14 17 18 18 18 18 18 17 17 17 18 17 17 17 17 18 18 17 17 17 17 17 17 17 17 17 16 17 17 17 17 17 17 17 17 17 17 17 17 17 18 18 18 18 17 18 17 16 16 17 17 17 18 18 17 18 19 20 21 21 21 21 22 21 21 22 22 21 22 23 22 21 20 19 20 20 19 19 19 19 19 19 19 19 19
13 14 14 15 17 18 18 18 18 17 17 17 17 17 17 17 17 17 17 17 18 18 17 18 17 17 17 17 16 17 17 17 17 17 18 18 18 18 18 18 18 17 17 17 18 18 18 17 17 17 16 16 16 17 17 17 16 16 18 19 20 20 20 21 21 20 20 21 21 21 22 22 22 22 21 19 19 19 19 18 18 18 19 18 18 18 18 18
Height
816 815 813 811 809 808 806 804 803 801 799 798 796 795 794 792 791 790 788 786 785 783 781 780 779 778 777 776 774 773 772 771 770 770 768 761 759 762 764 765 767 768 769 770 772 774 775 776 776 777 781 782 783 782 780 778 777 786 797 805 809 807 801 791 788 787 787 791 791 790 789 791 794 792 788 790 796 797 803 803 793 790 788 789 792 795 797 800
816 814 812 810 809 807 806 804 802 800 799 797 795 795 793 792 790 788 787 785 784 782 780 779 778 777 776 775 774 772 771 769 769 767 762 758 759 761 763 764 766 767 768 769 771 772 774 776 776 777 781 784 783 779 781 776 775 788 796 803 804 797 788 778 779 781 782 787 789 788 788 788 790 791 789 795 799 798 810 809 797 796 794 792 794 796 798 799
815 813 811 810 808 806 805 803 801 800 798 796 795 793 792 791 789 788 786 785 783 782 780 779 778 776 775 775 773 772 771 769 768 764 758 757 759 760 762 764 765 767 767 768 770 771 773 774 775 778 782 786 782 779 782 776 775 782 789 802 796 783 779 772 774 777 776 779 785 788 787 788 787 787 791 796 799 803 810 804 798 801 798 795 795 795 797 799
814 813 810 809 807 806 804 802 801 799 797 796 794 792 791 790 789 787 785 784 783 781 780 778 778 776 776 774 773 772 770 770 767 760 758 758 758 759 761 763 764 767 767 768 770 771 772 774 775 777 782 788 782 780 783 777 776 777 782 793 783 774 779 773 770 773 772 775 781 786 787 789 785 784 790 794 803 811 807 795 791 794 794 794 794 794 796 798
814 812 810 808 807 805 803 802 800 798 796 794 793 791 790 789 788 786 785 783 782 781 779 778 778 776 775 774 773 771 770 775 767 757 758 758 758 759 760 762 764 766 767 769 770 771 773 774 775 778 783 787 785 784 783 772 771 777 777 776 770 771 777 771 768 770 771 774 778 784 787 786 782 784 788 791 801 804 793 786 785 785 787 789 790 792 794 797
813 811 809 807 806 804 802 801 799 797 795 793 792 790 789 788 786 785 784 783 781 780 779 778 777 776 775 773 773 771 772 775 763 756 758 757 758 758 759 761 763 765 767 768 769 770 773 774 778 783 783 785 786 784 779 768 769 780 777 767 766 767 770 767 766 767 768 774 779 782 781 779 784 787 783 786 790 786 778 778 782 782 783 786 788 791 793 796
812 810 808 806 804 803 801 800 798 796 794 792 791 789 788 786 785 785 783 782 780 779 778 777 777 776 774 773 773 772 772 768 757 755 757 755 758 757 759 761 762 765 765 767 768 770 773 775 780 781 784 786 783 779 774 768 767 778 778 767 763 762 762 761 762 765 766 772 774 774 777 780 787 786 781 783 782 777 774 774 779 783 783 786 789 791 793 795
811 809 807 805 803 801 799 798 796 795 793 791 790 788 787 785 784 783 782 781 779 778 778 777 776 775 774 773 772 772 771 762 754 755 755 755 757 756 759 760 761 764 763 766 766 768 772 776 778 777 784 784 776 774 770 770 771 773 774 766 760 759 757 756 760 764 765 768 768 771 779 781 781 781 781 782 779 776 775 774 778 783 785 788 790 792 793 795
810 808 806 804 802 800 798 796 794 793 791 790 788 786 785 784 783 782 781 780 778 778 776 776 776 774 774 773 773 773 765 756 754 755 754 755 756 756 758 758 760 762 762 764 764 768 771 773 774 773 779 776 771 771 767 775 778 768 766 763 760 759 755 756 760 763 765 765 766 774 781 780 777 779 784 780 776 777 775 776 780 784 788 789 790 791 792 795
810 807 805 803 800 799 796 794 793 790 789 787 786 785 783 782 781 780 779 778 777 776 775 776 775 774 774 772 773 772 759 752 754 754 753 755 754 755 756 757 759 760 761 763 763 766 766 767 767 765 772 771 768 768 766 773 771 759 759 759 758 758 754 755 760 762 763 765 765 772 780 779 776 782 789 778 771 776 777 780 782 785 790 790 790 791 791 794
809 806 804 802 800 798 795 793 791 789 787 785 783 782 781 780 779 779 778 777 776 775 774 774 774 774 773 772 774 769 754 752 754 752 754 754 754 754 755 756 757 758 760 761 762 762 761 761 761 765 772 769 766 766 763 762 760 756 758 760 757 755 753 753 759 762 763 768 764 765 775 779 780 786 785 773 769 774 779 783 783 786 789 789 790 790 791 793
808 806 803 801 799 797 794 792 790 788 785 783 781 779 779 778 777 777 776 775 775 774 774 773 774 773 772 773 772 761 751 752 753 752 753 752 753 753 753 754 755 756 758 759 760 759 759 759 761 770 771 766 770 771 763 754 755 756 756 765 762 755 757 754 756 759 761 769 764 764 784 789 787 786 776 767 769 773 778 784 785 787 788 789 790 789 791 792
807 805 803 801 798 796 794 791 789 787 784 781 779 776 776 775 775 775 774 774 773 773 773 773 773 772 773 771 761 753 751 752 752 752 753 752 752 752 752 753 753 755 756 756 757 756 759 760 763 768 764 767 774 767 758 752 756 759 757 765 767 766 766 753 752 758 760 764 758 766 796 801 787 780 771 766 767 773 781 785 786 787 788 789 789 789 790 791
806 804 802 799 797 795 793 790 788 785 783 780 776 775 774 773 773 773 772 772 771 772 772 772 772 772 773 766 752 750 752 751 751 752 751 751 751 752 752 752 752 754 754 755 755 756 759 760 761 764 761 765 765 758 759 760 761 764 765 766 770 779 774 752 748 759 764 762 751 763 795 798 783 776 770 765 765 772 781 784 785 787 787 789 789 790 790 790
806 803 801 799 797 795 792 790 787 784 782 778 774 773 771 771 771 769 769 769 769 770 770 771 771 771 773 764 750 750 751 750 751 750 750 751 750 751 751 751 752 752 754 755 755 757 758 758 762 767 764 758 759 766 773 772 767 768 777 780 776 779 775 756 746 751 762 762 752 763 789 791 779 772 766 763 765 770 779 782 783 786 786 788 788 789 790 790
805 803 800 798 796 794 792 789 786 783 780 776 773 771 769 769 768 767 767 767 768 769 769 771 770 770 773 763 751 749 750 750 749 748 749 750 750 750 750 751 751 751 754 754 755 755 756 758 761 763 762 761 766 775 780 782 779 774 781 788 781 778 777 766 750 742 751 762 761 763 779 784 775 767 763 761 764 770 777 780 781 784 785 786 787 788 789 790
804 802 799 797 795 793 791 788 786 782 779 776 773 769 767 766 765 764 765 766 767 767 768 770 769 771 768 756 751 753 749 748 748 747 748 748 749 749 749 751 751 751 752 753 755 755 757 760 762 762 763 767 770 776 789 799 796 785 782 785 780 777 778 773 760 744 744 760 768 764 769 775 768 762 762 761 762 769 775 777 778 780 782 783 785 786 787 788
803 801 798 796 794 791 789 787 785 781 778 775 772 770 767 765 764 764 764 766 766 767 769 769 770 775 769 755 754 753 747 747 747 746 747 747 748 748 749 750 750 751 755 758 758 758 761 762 765 771 772 772 773 779 796 801 793 789 786 785 783 777 776 775 766 751 746 757 766 768 770 770 765 761 762 760 760 767 771 773 775 776 779 781 782 784 785 786
802 800 798 795 793 790 788 786 784 781 777 774 772 770 766 765 764 763 764 765 768 770 771 770 769 772 769 757 752 749 746 746 746 746 746 746 747 747 748 750 750 754 762 768 766 763 765 768 773 781 782 780 777 779 788 787 781 783 782 782 785 781 775 770 761 750 747 757 763 766 770 770 768 765 763 760 759 765 769 770 774 776 776 778 780 781 782 784
801 799 797 794 792 789 787 785 783 781 778 774 772 769 768 769 770 769 765 764 766 767 766 765 764 764 762 756 750 748 747 745 746 745 745 746 746 748 749 750 754 759 766 773 772 764 765 778 784 784 783 780 776 774 777 777 776 777 779 781 782 782 777 765 757 747 743 757 762 758 764 767 766 764 760 758 759 764 769 771 774 775 776 776 778 779 780 781
801 798 796 793 790 788 786 783 782 781 778 776 774 773 774 774 778 778 770 765 761 760 761 759 759 761 757 752 749 747 748 748 747 744 745 745 745 752 755 755 762 769 768 769 770 764 768 784 786 778 776 773 771 770 771 774 775 777 780 783 783 782 776 761 755 748 741 755 759 752 762 766 761 760 757 756 760 763 764 768 771 771 772 773 774 776 777 778
800 798 795 792 789 787 785 782 781 780 778 777 775 776 776 774 775 775 772 771 762 755 758 755 755 757 751 748 747 745 750 754 752 747 745 745 747 756 760 760 768 772 767 767 772 775 781 786 779 771 769 769 769 768 770 773 775 778 779 784 786 778 772 760 751 746 743 753 758 752 761 764 755 754 754 752 755 756 755 757 761 764 767 769 771 773 774 776
800 797 794 792 788 786 784 782 780 779 778 777 776 776 775 773 772 770 771 776 768 755 754 754 754 754 750 748 745 745 753 757 757 751 743 747 751 754 760 764 769 770 769 771 776 785 791 784 770 765 765 768 771 768 770 774 775 778 779 785 786 774 774 771 756 748 744 748 752 750 757 761 756 756 755 750 749 751 752 753 754 758 761 763 763 766 770 774
800 796 795 792 788 785 782 780 779 779 778 777 776 775 774 773 771 770 771 775 773 759 751 750 750 750 750 747 743 747 754 753 754 751 742 747 752 753 758 763 767 771 771 770 773 781 784 772 760 763 765 767 772 770 771 777 778 777 774 779 779 770 770 769 759 752 748 745 742 746 766 771 763 765 763 754 752 753 754 756 758 758 758 759 761 763 765 768
798 796 794 791 788 785 781 780 778 778 778 776 776 775 774 773 771 770 772 778 777 762 751 748 748 748 745 744 744 746 751 751 748 746 741 743 750 754 758 758 764 772 771 768 772 777 775 762 756 764 768 767 773 773 770 774 779 778 769 766 767 764 762 761 759 759 764 764 744 745 785 793 768 765 765 757 757 758 757 758 760 760 759 760 762 762 762 764
797 795 793 791 788 784 781 779 778 779 777 775 775 774 773 773 771 770 775 785 781 763 755 754 751 750 745 745 745 744 756 757 744 740 741 742 744 750 760 760 761 767 765 762 767 770 765 757 755 763 767 767 772 773 767 767 778 780 765 754 755 757 759 759 760 765 772 773 749 742 778 795 778 769 763 756 758 760 759 760 759 759 760 759 759 758 759 761
796 793 791 790 787 785 782 779 779 779 777 776 774 773 772 771 771 770 777 794 788 762 757 757 752 750 747 746 743 750 767 761 744 742 740 742 742 745 759 764 762 764 758 761 773 768 759 758 759 760 764 768 772 773 764 761 776 777 756 748 752 754 758 758 760 766 764 759 754 746 757 781 787 774 759 756 761 763 763 762 760 758 758 757 755 754 754 756
794 792 789 787 786 786 783 781 781 778 777 777 773 773 773 770 771 772 783 801 788 758 756 757 749 747 746 745 745 752 760 754 754 752 737 739 744 746 760 763 762 764 756 766 782 770 757 761 762 760 765 770 768 765 756 755 768 764 746 745 749 749 752 753 757 764 758 759 769 760 752 775 786 767 755 758 765 770 767 762 759 755 753 753 753 752 750 751
791 789 787 784 783 783 782 781 780 777 776 775 773 773 771 769 771 774 788 797 777 756 756 754 750 749 747 749 750 751 751 751 758 753 738 742 744 745 758 758 757 763 757 763 775 766 756 756 754 756 764 765 759 753 748 753 759 750 742 745 746 747 748 750 758 760 759 768 776 764 755 772 781 764 759 766 770 770 764 757 754 750 749 749 749 749 749 749
788 787 785 782 781 781 781 780 778 776 775 773 773 772 768 771 775 784 797 790 770 761 758 754 755 754 753 757 757 753 753 753 752 747 745 748 746 745 751 750 752 761 761 761 765 761 753 748 747 751 755 753 750 747 744 746 747 741 743 749 750 753 749 751 757 758 770 780 772 761 753 762 777 768 759 761 758 754 754 755 753 749 749 748 747 746 746 747
785 784 783 781 779 780 780 778 776 775 775 773 773 769 769 775 780 793 797 776 765 767 760 758 759 754 756 762 761 757 756 755 751 752 755 754 754 757 757 758 761 765 770 768 766 761 753 751 752 747 744 744 746 747 742 739 739 742 749 754 761 765 758 761 764 764 785 788 766 757 751 758 776 768 752 747 739 737 742 746 747 747 747 745 743 742 741 742
783 782 781 779 778 778 778 777 775 775 774 773 772 769 774 782 787 794 787 769 772 775 763 761 760 755 758 760 761 760 758 758 755 756 760 761 766 769 770 773 773 778 785 780 775 770 760 756 755 748 742 745 752 755 749 741 739 746 753 759 775 784 781 785 784 781 791 782 761 756 754 761 769 754 742 741 735 733 733 731 734 736 739 740 739 738 736 737
782 780 779 779 778 777 776 775 774 775 774 772 772 771 777 792 796 791 783 777 779 772 760 760 757 755 759 761 762 760 758 761 758 757 760 763 772 775 774 774 772 779 786 783 784 784 773 762 757 754 750 750 757 766 770 761 751 752 756 762 779 791 800 807 799 793 793 776 755 751 756 767 765 744 733 733 729 728 727 726 727 727 729 731 730 731 732 733
781 779 779 778 777 776 775 775 774 774 774 772 773 776 784 798 796 784 782 781 773 764 761 762 759 757 760 763 763 759 762 766 760 761 765 768 778 782 781 778 773 776 780 783 790 792 790 782 767 765 764 758 759 766 771 766 757 753 748 753 768 777 790 801 797 793 791 775 759 755 761 769 762 739 723 720 718 717 719 721 723 724 724 723 724 727 730 731
781 779 779 777 776 775 774 774 774 774 776 774 776 784 794 801 794 786 785 779 770 768 766 762 761 764 765 763 762 759 764 768 762 766 776 781 789 791 788 786 780 778 780 789 794 793 797 791 771 765 764 760 764 762 757 757 760 752 742 752 764 761 765 778 782 777 777 779 772 763 763 756 742 725 711 712 717 715 715 716 720 725 724 725 730 731 731 731
780 778 777 776 775 774 773 774 774 775 776 777 784 793 795 794 790 786 782 775 773 773 771 769 768 774 777 771 766 762 762 765 765 772 781 786 792 794 791 789 784 781 783 792 798 797 799 791 770 763 762 761 766 762 754 762 768 757 752 760 756 744 750 769 777 768 771 789 781 763 761 751 739 730 711 708 717 716 716 717 717 720 721 726 732 730 730 730
780 778 777 775 775 774 774 774 774 776 777 781 792 796 788 784 782 780 776 773 773 771 775 783 781 781 787 784 778 770 765 767 769 775 784 787 795 799 795 790 785 783 783 787 793 795 796 792 774 766 769 765 760 756 753 758 765 770 774 767 749 741 747 761 778 780 785 799 784 762 764 761 757 750 722 710 716 715 716 718 715 715 718 723 726 724 725 724
781 779 778 775 775 774 773 774 774 776 778 786 794 791 783 781 779 775 775 773 772 772 779 791 786 781 788 792 788 778 772 776 777 780 789 795 801 802 798 795 788 784 783 782 789 792 792 795 783 770 775 771 757 757 763 760 759 770 775 763 758 767 767 766 780 788 794 802 788 768 765 762 759 751 730 720 718 710 709 713 713 713 715 718 719 718 719 718
782 781 780 776 775 774 774 775 774 776 784 792 796 789 782 781 777 773 773 773 773 776 783 789 785 783 787 790 791 784 780 785 785 786 795 803 807 802 797 797 792 789 786 785 794 796 791 799 794 775 774 775 766 773 788 784 768 763 766 764 766 774 775 773 774 777 786 797 792 781 773 765 756 746 736 731 722 711 706 707 710 709 707 710 712 712 714 715
784 784 782 776 775 776 774 775 776 780 789 792 791 787 781 780 777 773 772 773 774 778 783 786 786 788 790 788 789 787 786 788 789 793 800 804 809 805 797 796 794 792 789 788 797 798 794 802 801 783 775 780 786 790 797 798 788 779 782 785 785 779 774 775 770 764 773 786 790 790 783 769 755 745 741 737 728 718 708 703 705 703 699 701 702 704 707 709
786 788 784 776 776 777 775 778 782 784 788 789 786 784 780 780 780 777 774 774 777 777 779 783 786 790 791 791 792 791 790 791 792 798 804 804 808 809 801 796 795 793 793 795 801 803 803 807 808 801 793 794 798 793 787 790 789 789 794 797 798 793 790 798 794 776 771 777 779 782 782 773 758 746 742 737 729 719 705 698 699 697 695 696 695 696 699 702
790 790 784 776 777 777 777 783 784 782 785 785 783 781 779 780 783 783 780 779 781 780 779 783 787 789 791 792 793 792 793 796 797 801 806 806 807 808 802 796 795 795 798 805 807 803 803 809 814 814 806 799 796 788 785 786 781 784 794 796 798 797 799 815 818 800 788 783 773 770 775 771 756 745 743 740 731 721 705 694 693 693 691 691 691 692 695 698
795 792 782 776 776 775 780 789 788 785 785 781 779 780 780 783 787 786 785 786 787 786 786 788 789 790 791 790 792 794 796 800 803 803 806 807 806 804 800 795 796 797 801 809 809 801 803 813 819 816 806 796 789 782 782 784 786 795 801 797 799 801 800 805 806 800 798 797 791 787 783 768 750 743 744 741 733 724 711 700 698 698 694 692 693 693 695 698
800 796 785 780 777 775 785 796 796 794 791 783 783 785 784 786 789 790 790 792 792 791 792 794 792 792 793 791 794 799 801 805 810 807 807 811 808 803 799 797 797 799 802 808 808 805 811 820 823 823 818 807 799 798 798 795 799 809 809 802 801 800 798 798 796 796 800 802 803 807 801 778 756 748 747 744 737 731 723 714 708 707 705 703 702 701 700 701
800 797 790 784 779 780 788 795 795 797 796 792 794 794 791 791 791 791 793 794 793 793 796 798 795 794 796 796 799 804 804 808 814 813 812 814 810 804 802 799 798 798 799 802 801 803 814 823 823 830 837 831 827 830 829 819 813 812 809 805 802 801 801 802 805 809 808 803 803 809 805 785 763 754 753 750 744 739 734 727 719 717 717 714 712 710 708 709
800 800 797 791 786 786 790 790 790 796 798 798 801 800 799 799 795 791 792 796 796 794 797 800 798 798 801 802 806 811 809 808 812 815 817 818 815 808 804 802 800 798 798 800 800 804 815 822 822 828 835 836 836 836 830 823 820 816 812 808 805 803 802 803 811 816 811 807 806 801 797 789 773 763 760 757 752 748 744 740 734 729 727 723 721 719 716 717
803 805 806 805 800 795 795 793 794 798 799 800 805 806 806 807 804 798 796 799 800 797 800 803 804 807 811 810 811 815 814 812 814 817 818 819 817 812 806 803 804 801 799 801 802 806 818 824 822 824 827 827 828 828 823 821 821 818 815 812 807 804 802 804 811 811 806 813 812 794 789 793 783 770 768 766 761 756 753 753 750 744 738 734 731 727 723 724
806 807 806 808 808 805 804 801 798 800 801 801 806 809 810 812 812 809 805 803 802 802 805 811 812 813 815 814 815 819 819 820 823 823 822 821 820 817 813 808 807 804 803 804 804 808 821 826 821 821 825 823 822 822 821 821 821 818 816 814 808 805 804 805 806 801 802 813 810 791 788 791 782 775 776 771 766 764 762 761 760 756 749 743 739 735 733 733
809 810 807 805 808 808 806 802 800 804 805 805 809 813 814 815 815 814 811 809 810 809 811 819 821 817 816 816 817 823 827 828 831 828 825 824 822 821 821 817 812 808 807 809 809 811 820 825 821 822 826 824 822 821 820 820 821 820 817 813 808 805 802 800 799 796 796 801 796 788 789 786 777 777 777 772 768 768 766 763 763 762 758 751 749 747 743 740
814 816 813 810 809 806 804 803 805 808 809 809 814 815 814 816 817 815 813 816 820 818 815 821 822 818 818 818 820 827 829 828 830 828 824 825 825 822 823 821 817 815 813 814 815 815 821 826 822 823 830 831 825 822 821 820 821 822 819 814 809 805 801 799 796 793 795 797 790 786 790 786 775 771 774 774 772 768 767 766 767 768 764 758 757 756 751 748
817 817 816 815 813 808 807 808 808 812 814 815 816 817 817 819 818 817 816 816 819 821 819 820 821 819 819 820 823 827 825 822 825 824 820 823 824 822 822 820 819 821 820 820 820 819 823 827 824 826 837 836 828 826 825 821 822 824 822 816 810 806 805 803 798 796 800 800 793 790 792 788 776 769 771 775 774 771 772 771 771 772 769 765 765 763 757 753
817 815 814 815 815 813 812 812 812 816 820 820 818 818 821 822 818 818 821 819 816 818 819 818 820 821 823 825 826 824 821 820 821 819 817 818 817 817 818 817 817 821 823 823 822 821 823 826 827 831 838 837 830 828 826 826 832 831 820 811 808 806 804 802 799 798 798 795 794 795 790 783 776 771 773 778 776 774 776 775 774 774 773 773 772 767 760 757
Wind_Speed
23 23 23 24 24 24 25 26 26 25 23 21 20 20 20 22 22 23 23 21 20 20 17 15 15 15 15 13 12 11 13 13 10 5 7 7 7 10 12 10 7 14 16 10 10 10 8 7 8 9 6 4 4 3 6 7 4 3 2 2 2 2 3 3 3 3 3 3 5 5 3 3 6 4 4 4 2 4 5 1 3 8 10 14 22 30 32 31
23 23 23 23 24 25 25 26 27 26 24 22 21 20 20 21 23 24 24 21 19 19 17 15 13 14 13 10 10 11 13 13 9 8 9 4 8 17 12 7 7 14 17 11 13 13 8 6 7 7 4 2 3 4 4 5 6 5 2 2 4 4 4 3 5 5 4 5 5 6 5 2 5 5 3 4 4 6 6 7 9 11 12 17 26 30 30 29
24 24 24 24 24 25 26 26 27 27 25 23 22 21 20 21 23 24 24 20 18 19 16 14 13 12 11 8 9 11 12 9 5 5 3 2 11 18 14 8 7 12 17 13 13 15 11 9 11 7 4 3 4 4 5 4 5 5 4 2 6 6 4 2 8 8 6 9 8 6 5 3 4 6 3 4 8 6 7 11 14 14 15 19 22 26 30 28
25 25 25 25 25 25 26 27 27 27 26 24 23 22 21 21 22 24 24 20 17 17 14 13 13 12 11 9 9 10 9 5 2 2 1 3 8 14 14 11 9 10 12 11 11 15 11 7 9 8 5 4 4 5 6 5 3 3 5 5 7 5 4 3 8 9 7 11 9 7 7 4 4 6 5 7 10 5 10 12 17 18 21 22 21 23 28 25
25 25 26 26 26 26 27 27 27 27 27 25 24 23 22 21 21 23 24 19 16 15 13 11 13 12 11 10 9 8 5 3 1 3 1 3 5 10 14 12 12 11 9 10 10 12 9 4 3 5 5 4 5 4 6 9 5 3 6 10 9 4 3 2 9 11 9 9 8 9 8 6 4 3 7 8 9 7 8 13 18 20 22 22 22 23 23 22
25 25 25 26 26 27 27 27 28 27 28 26 25 24 23 22 21 22 22 19 15 13 11 9 13 14 10 9 8 5 2 1 4 5 1 3 5 8 13 13 13 12 11 11 10 8 6 3 2 4 4 4 6 6 6 9 7 5 6 9 10 7 5 6 12 11 10 11 9 9 6 6 5 2 7 8 7 3 3 14 18 18 22 22 23 22 19 19
26 26 25 26 26 27 28 28 28 28 28 27 26 24 23 22 21 21 21 19 15 13 10 9 14 16 10 7 5 1 1 3 6 6 3 3 4 7 11 14 15 14 12 12 9 6 5 5 4 4 5 5 6 8 8 7 7 8 7 8 8 9 10 9 14 12 11 12 10 9 7 8 8 4 6 6 5 1 2 17 20 17 22 23 20 18 16 19
26 26 26 26 27 28 28 28 29 29 29 28 27 25 23 22 21 21 20 18 16 13 10 9 13 15 10 5 3 1 0 5 6 8 6 5 5 7 12 14 17 16 14 15 12 8 5 6 7 5 5 7 6 7 8 6 7 9 9 10 7 8 9 9 15 13 11 9 8 11 7 9 9 5 5 6 7 4 4 17 20 17 19 19 18 16 15 17
27 27 26 27 28 28 29 29 29 30 30 29 28 26 24 22 21 20 18 17 17 14 10 9 12 13 9 3 1 1 1 4 4 8 6 6 6 5 11 15 18 18 15 16 14 10 6 6 8 7 5 8 7 7 6 4 5 7 8 10 8 7 7 8 15 14 11 7 8 11 7 8 7 4 4 7 10 6 6 18 20 18 18 17 16 14 15 16
27 27 26 27 28 28 28 29 30 30 31 31 30 27 25 23 21 19 17 17 17 14 9 8 11 10 6 2 2 1 3 2 3 7 6 7 5 4 10 14 18 20 15 13 15 12 9 8 7 4 5 6 6 7 5 5 4 6 7 7 7 7 7 7 13 13 11 9 11 11 8 8 6 3 3 8 12 8 10 19 19 18 18 17 16 12 15 17
28 27 26 27 27 27 28 28 29 30 31 32 32 29 26 24 21 18 17 17 17 13 8 7 10 7 3 2 3 2 4 1 2 6 8 7 4 2 7 11 15 20 16 10 14 17 15 13 6 1 3 4 5 6 5 6 5 7 9 8 7 6 6 7 13 13 10 10 12 10 7 6 5 2 4 9 15 13 16 20 19 18 16 17 16 12 13 15
28 27 27 27 27 27 27 28 28 29 30 32 33 31 27 24 21 17 17 17 15 11 7 5 7 4 2 1 3 5 3 1 2 3 8 7 5 4 5 8 11 17 18 10 12 20 21 17 8 3 5 4 5 5 5 6 5 8 8 6 7 4 3 6 11 13 10 9 11 8 6 3 4 5 4 11 16 16 19 19 18 17 15 16 15 11 11 15
28 27 28 27 27 27 27 28 28 29 30 32 33 32 28 23 19 17 17 17 13 10 6 4 5 2 2 1 6 6 5 3 3 2 7 8 8 7 7 7 8 13 17 15 14 19 21 16 9 7 8 5 5 5 6 7 5 7 7 3 4 4 3 6 8 14 11 10 15 10 4 4 7 8 6 12 16 17 20 18 17 15 14 16 12 10 12 15
28 28 27 27 27 27 28 28 29 29 30 32 32 31 27 21 18 17 18 17 12 7 5 5 4 1 2 4 9 7 6 5 5 5 7 9 8 8 10 10 11 12 15 18 16 13 14 15 11 8 7 7 5 5 7 6 3 5 6 4 1 0 4 6 5 14 11 10 19 12 2 6 9 10 9 14 16 18 20 18 17 15 14 15 12 12 13 14
28 28 27 27 27 27 28 29 30 30 31 32 32 29 24 20 19 19 18 13 8 5 5 5 2 3 1 6 9 6 4 5 7 9 8 9 6 5 10 13 13 15 15 16 13 10 12 14 9 6 6 5 3 4 5 4 3 1 1 5 2 2 4 7 3 11 10 8 16 10 2 6 11 13 13 15 15 17 19 18 18 16 16 16 12 12 13 13
28 28 28 28 28 28 29 31 31 31 32 33 30 25 22 20 19 16 13 8 4 4 4 3 1 3 1 4 6 5 3 6 7 7 6 6 5 3 7 11 11 14 16 15 13 11 13 10 5 5 5 4 2 1 3 4 4 2 2 3 3 2 3 4 6 6 10 10 12 9 4 5 8 13 16 16 16 17 18 18 18 17 17 17 13 13 13 12
29 28 28 28 28 28 30 31 32 32 32 31 27 24 20 16 13 9 5 1 1 3 2 1 0 1 2 6 4 4 4 7 6 3 1 3 4 5 4 5 6 9 13 12 11 10 7 5 2 3 3 2 1 2 1 3 4 4 1 3 4 3 3 3 5 6 9 13 12 10 5 5 10 16 18 17 17 16 16 17 18 17 16 15 14 14 13 13
29 29 29 29 28 29 30 31 33 33 32 29 26 22 16 12 8 3 4 4 2 1 1 1 1 2 2 5 4 5 4 3 3 2 3 2 4 5 2 2 3 5 5 3 6 4 2 2 1 1 1 2 2 3 3 3 3 2 3 3 4 3 3 5 5 4 6 11 13 11 6 7 14 17 17 18 19 17 15 16 15 17 16 14 14 15 13 14
30 29 29 29 29 29 29 31 32 33 32 27 23 19 11 8 5 5 6 4 3 1 1 1 2 1 3 6 6 8 8 4 3 3 3 2 3 4 1 1 2 5 4 0 3 2 2 2 1 1 2 4 5 4 5 3 3 4 5 3 4 5 5 7 8 6 5 7 10 12 8 10 16 16 16 17 18 16 14 14 13 15 15 12 13 13 13 14
30 30 30 30 31 29 29 31 31 33 31 24 23 17 7 6 4 2 4 1 3 4 6 5 4 4 7 8 10 10 8 5 2 4 5 3 5 2 2 2 2 3 4 3 3 2 4 3 2 4 4 5 5 6 6 4 7 7 7 5 5 6 7 7 9 8 4 6 9 13 12 13 17 18 18 17 17 16 15 15 13 14 13 12 14 14 15 14
31 30 30 31 31 30 29 29 30 31 25 19 18 10 2 3 2 3 6 5 6 7 9 10 8 9 11 12 16 11 3 3 3 3 6 7 7 4 2 2 4 1 2 5 4 1 4 4 5 6 6 6 6 6 6 7 9 9 7 6 6 6 9 11 11 10 4 5 9 12 13 15 18 18 18 18 18 17 17 18 16 16 15 13 16 16 15 12
31 30 30 31 31 31 29 28 30 25 17 16 13 4 3 2 3 2 4 4 9 6 7 10 8 9 13 17 20 10 2 1 5 5 5 6 4 3 1 1 3 2 3 4 3 1 2 4 7 8 6 6 7 7 7 8 9 8 6 5 6 6 7 11 10 7 4 3 6 12 14 15 19 19 19 20 19 17 19 21 20 19 17 15 16 16 15 13
31 31 31 29 31 31 28 29 26 15 14 18 12 6 5 3 6 8 4 1 7 6 5 6 5 6 9 11 12 4 3 2 3 4 5 5 2 3 4 3 4 4 3 5 4 3 2 5 9 10 7 7 9 9 8 8 7 6 6 4 6 7 5 7 6 5 5 5 6 13 12 10 14 15 17 20 18 16 18 20 18 18 18 17 18 17 16 16
30 31 30 29 31 29 28 30 18 10 17 17 10 8 7 7 10 11 3 1 4 6 5 6 4 4 5 4 3 4 3 3 3 4 6 5 2 2 3 4 5 3 4 7 7 5 5 7 9 9 9 9 8 8 8 6 5 6 7 6 7 10 8 8 7 7 8 9 6 9 6 3 9 13 14 14 13 14 16 17 15 15 16 15 15 16 16 17
30 30 29 30 29 27 29 23 9 13 19 10 6 14 13 10 13 11 4 0 3 4 4 4 2 3 3 0 4 4 2 2 4 4 6 6 4 2 1 1 3 4 5 7 8 6 7 10 8 7 8 9 8 7 7 6 4 5 7 9 11 12 12 12 9 6 5 6 5 4 5 2 7 14 15 12 12 14 14 16 16 15 14 13 13 15 16 17
30 29 29 29 27 28 25 10 7 18 15 4 10 18 14 12 15 11 5 2 2 3 1 0 0 2 2 1 3 2 4 3 5 2 5 5 4 3 1 2 1 3 5 4 4 3 6 10 9 8 8 9 9 8 9 7 4 5 6 8 12 11 12 12 9 5 2 4 4 4 5 3 5 10 13 14 16 16 14 16 18 15 14 15 14 14 16 16
29 28 29 28 25 25 16 6 13 17 6 4 14 17 14 14 16 11 4 3 3 1 1 1 1 0 2 0 2 4 2 4 5 2 2 4 3 3 1 2 2 2 2 2 0 2 4 6 8 9 8 7 7 6 9 8 5 5 6 8 10 9 10 10 7 5 4 4 2 3 5 4 4 9 12 15 17 16 15 16 16 15 16 17 16 15 17 18
29 28 28 26 23 19 10 9 15 10 4 10 14 14 15 17 15 6 3 2 2 0 0 1 1 2 2 0 3 2 4 3 1 3 3 5 3 3 2 3 3 3 3 2 1 5 4 3 5 4 3 4 5 7 11 10 7 7 9 9 8 8 9 7 5 6 5 5 4 1 3 3 3 8 12 13 14 15 16 18 18 18 19 18 17 17 17 19
29 28 26 25 21 11 5 9 10 6 9 13 12 15 19 17 9 2 3 2 2 0 1 0 1 2 1 1 1 2 2 2 2 4 2 3 0 2 2 5 3 3 4 3 2 6 4 3 4 3 3 4 5 7 10 10 8 8 9 10 8 7 7 2 1 3 2 4 5 3 2 3 3 6 10 10 10 13 15 16 17 18 19 18 17 17 17 17
29 26 24 23 18 8 5 10 8 5 9 12 13 18 18 11 3 4 2 1 2 1 1 0 1 0 2 2 2 2 1 2 3 1 1 2 3 3 1 1 1 2 3 1 2 6 5 3 3 3 3 4 4 6 7 9 10 8 6 8 8 6 4 2 2 2 1 4 6 5 3 5 1 4 8 11 14 17 15 13 15 15 16 17 16 16 16 16
27 24 20 19 15 8 6 6 3 4 8 12 17 17 10 4 3 4 3 1 1 1 1 1 1 1 3 2 2 2 1 1 1 2 2 3 5 5 4 3 3 3 4 4 3 6 8 4 1 3 3 3 5 6 6 5 8 7 3 2 4 5 4 3 4 3 1 5 6 3 1 5 2 4 6 12 16 19 18 16 18 18 18 17 16 16 16 17
24 20 15 12 12 9 6 3 3 4 8 13 15 9 3 4 2 2 2 1 1 1 2 2 2 1 2 2 1 2 2 1 2 3 2 3 4 5 5 4 2 2 3 3 3 5 6 4 3 4 2 4 5 5 6 5 1 4 3 2 1 3 2 2 3 1 3 5 6 2 4 2 4 5 7 12 14 15 17 17 20 22 21 19 18 17 16 16
21 16 9 7 10 10 8 6 5 5 10 16 11 3 4 4 2 2 2 3 1 1 2 1 1 2 3 3 2 0 1 3 3 2 3 4 5 5 8 8 5 2 1 0 2 4 4 4 6 4 2 6 7 5 4 6 4 2 4 4 3 2 0 2 3 2 2 6 7 2 3 2 4 5 8 13 13 14 15 15 17 21 22 22 21 19 17 17
19 13 8 7 10 10 9 7 6 8 13 14 6 4 4 4 2 3 3 3 2 2 4 4 4 3 4 2 1 1 3 3 3 4 5 6 5 4 6 10 10 4 1 3 2 2 2 3 5 5 3 5 7 5 3 6 5 4 4 5 4 4 4 3 3 2 2 5 6 2 2 3 3 5 8 12 13 15 16 15 14 16 19 20 19 19 18 17
16 11 9 10 10 10 8 5 5 7 9 7 5 4 5 4 2 3 3 3 3 4 7 7 4 2 3 3 0 3 4 1 3 6 7 6 5 5 5 7 10 7 2 3 1 2 1 4 4 4 2 3 9 8 6 6 5 4 2 4 2 4 4 3 3 4 3 2 4 1 1 4 5 6 7 6 10 13 17 18 15 15 17 14 13 14 15 15
15 12 8 10 11 7 4 2 3 5 3 5 5 4 3 2 1 2 2 3 2 4 7 6 6 4 3 3 2 3 3 1 2 4 5 6 7 8 6 4 8 8 4 3 1 2 2 4 6 6 2 5 10 11 5 6 5 4 2 1 5 5 6 3 2 1 3 1 4 3 3 4 3 6 9 5 6 9 14 18 18 18 18 15 12 14 15 15
17 15 8 10 8 1 2 1 3 3 2 5 4 1 0 1 1 1 3 4 3 4 4 4 5 4 3 4 4 4 3 2 3 3 2 3 5 7 6 4 7 9 5 2 2 0 0 3 5 5 4 6 12 11 2 6 6 3 2 6 7 2 4 3 0 2 2 2 4 4 3 4 3 3 8 8 8 7 10 17 20 20 19 18 16 16 18 18
15 12 8 8 5 4 5 3 5 3 4 4 2 1 1 2 2 1 2 4 4 4 5 3 3 4 4 4 4 6 6 3 3 3 3 3 3 4 6 5 6 11 10 4 2 1 1 3 4 5 6 8 11 9 4 8 10 5 1 7 6 1 1 1 1 1 0 1 3 5 4 3 2 4 7 9 11 12 9 14 20 20 18 18 18 19 21 20
9 6 4 6 3 2 3 4 5 3 5 3 1 1 1 2 1 1 3 4 3 3 4 3 3 4 4 4 3 6 7 5 4 4 3 3 1 3 5 4 5 9 10 8 4 3 3 2 4 3 7 7 6 6 5 9 13 10 7 7 5 1 2 2 2 3 2 2 2 3 4 3 4 4 7 10 11 13 13 10 16 20 20 19 18 18 19 19
5 3 2 6 4 0 1 3 2 4 3 1 1 0 1 1 2 3 6 7 3 2 3 3 4 5 4 5 6 5 5 5 6 5 3 3 1 2 5 4 4 6 7 9 7 4 4 3 4 5 7 5 3 4 5 5 8 9 8 8 7 6 4 3 3 1 3 3 2 1 2 3 4 6 10 14 14 12 15 12 10 16 20 21 20 20 19 18
4 3 3 7 5 1 0 2 2 2 2 1 1 1 3 4 5 8 10 10 5 3 3 4 5 5 4 6 6 4 4 4 5 5 3 3 3 1 5 4 4 5 4 6 7 4 3 1 2 5 6 3 2 3 5 6 4 2 4 6 7 7 6 5 4 3 1 1 3 3 4 2 4 8 11 15 16 14 14 12 11 15 19 20 20 20 20 19
3 1 4 12 10 4 2 4 2 1 1 1 1 1 4 5 5 8 11 10 7 5 5 4 5 5 4 4 4 4 5 4 5 5 2 3 5 2 3 5 4 4 4 2 3 3 2 1 2 4 5 5 5 5 4 4 2 4 7 7 7 6 6 4 4 5 4 4 2 2 4 3 3 9 13 14 16 17 14 6 8 14 18 20 19 19 19 18
2 3 8 20 15 3 2 4 4 2 3 2 3 5 6 6 5 7 10 9 7 5 5 5 5 4 4 4 5 6 6 5 6 5 2 3 5 3 3 5 4 3 4 2 3 4 3 2 3 4 5 6 5 2 2 7 8 6 5 7 7 7 7 5 4 4 2 4 4 3 3 4 5 10 13 15 17 17 17 13 5 1 5 9 11 13 15 16
2 4 5 18 20 8 5 3 3 4 5 5 7 7 6 6 6 6 8 8 6 4 4 5 6 5 5 5 6 9 8 5 6 7 5 3 4 4 6 6 3 3 3 1 0 2 2 2 3 3 5 6 6 4 4 8 9 4 4 8 8 9 11 8 4 3 1 3 5 3 3 5 8 10 11 16 19 18 19 19 16 12 8 6 5 5 4 6
3 1 5 10 17 12 4 0 2 4 5 6 7 8 6 4 4 5 7 7 6 4 3 4 6 6 7 7 7 10 9 6 4 5 5 4 4 5 9 8 5 3 4 5 4 2 1 2 3 3 2 2 2 3 4 7 7 4 5 9 10 11 13 8 4 4 3 3 4 2 3 7 11 11 11 15 18 17 20 21 20 18 14 12 10 10 11 9
2 2 2 6 9 7 2 2 3 4 4 4 4 7 8 4 3 5 6 6 6 6 6 7 8 8 8 9 7 8 8 6 4 3 3 4 4 4 7 8 7 5 7 10 7 2 2 2 2 5 4 4 4 3 4 6 8 8 9 11 10 11 12 6 2 3 4 5 5 2 4 9 15 15 11 13 15 16 18 20 19 18 17 15 12 12 14 14
2 1 3 3 4 4 4 5 5 4 4 4 3 5 8 8 5 7 7 6 7 7 6 8 11 10 9 8 5 5 7 6 7 6 4 4 3 4 8 8 7 9 10 8 5 3 3 2 2 2 3 4 4 4 5 6 8 11 12 11 10 11 12 7 3 5 4 5 5 5 5 9 13 14 10 9 12 13 14 17 18 17 16 15 14 15 18 16
2 0 1 1 1 2 3 4 5 7 7 6 4 4 8 9 7 6 6 6 8 9 5 7 11 11 10 8 4 4 7 6 6 6 5 5 4 4 7 7 5 9 10 5 3 4 3 1 2 3 4 4 4 5 6 6 7 10 11 12 11 10 11 8 7 8 5 3 7 9 9 9 9 10 8 7 10 11 11 12 14 15 16 16 16 17 18 17
3 1 3 3 0 2 3 4 6 9 9 6 4 5 6 7 7 6 5 4 6 8 6 6 9 10 10 9 6 6 6 4 4 5 5 6 5 4 5 4 4 7 9 5 4 3 3 1 3 4 5 6 7 8 8 8 7 8 10 13 12 11 12 11 9 10 8 7 9 9 9 8 7 6 5 4 6 8 8 10 12 14 15 16 17 17 17 16
3 1 3 3 3 3 3 5 5 6 6 5 3 4 4 6 6 5 5 5 4 5 6 7 7 7 8 9 8 6 4 3 3 4 4 6 6 4 3 3 4 8 8 5 4 3 3 1 3 4 4 5 6 7 9 9 9 8 9 11 12 10 10 11 10 8 7 7 8 8 7 5 5 5 4 4 6 7 10 13 13 13 14 15 16 16 15 16
3 2 2 1 2 5 4 4 4 4 5 5 3 3 5 6 5 3 4 5 5 5 5 6 7 6 6 8 8 6 5 5 5 6 5 4 4 2 1 2 4 7 6 4 3 2 2 1 2 3 2 3 4 6 9 9 10 10 6 7 10 8 7 9 8 5 5 6 7 6 4 3 5 6 5 5 6 9 11 12 11 10 12 14 15 14 14 15
8 4 4 3 2 5 3 3 4 4 3 4 3 4 5 5 5 4 4 4 5 6 5 6 6 4 4 7 7 5 6 6 5 6 5 4 5 4 4 4 4 3 3 2 3 2 2 2 0 2 0 3 3 5 8 8 8 7 4 4 6 8 8 9 8 6 6 5 3 1 1 3 5 5 5 5 8 10 10 10 10 9 11 12 11 12 13 14
Wind_Direction
355 354 355 358 359 1 3 4 4 2 359 355 354 354 353 352 352 353 352 349 347 342 335 329 326 327 330 335 332 326 327 321 322 290 240 268 232 176 153 157 175 167 159 167 174 163 174 203 217 213 220 221 219 240 228 225 204 188 194 214 250 231 228 227 177 160 141 145 158 154 174 144 126 146 124 121 160 84 79 302 174 124 124 136 143 151 155 156
355 354 353 356 358 359 1 2 2 2 358 354 352 351 351 351 351 353 352 349 348 345 341 338 336 336 338 345 339 327 327 319 310 275 246 249 173 175 168 147 173 180 171 175 180 171 167 190 205 203 203 217 226 235 231 213 194 191 177 188 233 219 214 198 142 147 153 143 149 154 165 146 125 140 133 151 154 110 134 187 156 128 128 134 145 155 159 156
354 353 353 355 357 358 359 359 0 0 358 355 351 349 349 350 351 352 352 348 347 347 344 347 352 351 351 353 346 332 327 326 306 276 260 153 170 181 181 166 169 183 184 187 185 184 184 185 191 188 189 227 241 241 247 228 202 192 156 197 241 221 234 193 146 168 171 140 144 156 150 158 147 131 137 149 123 126 192 174 148 143 142 144 152 158 161 156
353 353 353 354 356 356 356 356 358 358 357 354 350 347 346 347 350 351 351 348 346 348 346 354 2 360 356 349 343 335 329 348 327 271 64 137 182 185 182 174 175 184 192 198 193 195 203 202 194 192 192 221 243 244 248 240 221 194 172 217 237 194 231 233 150 165 162 140 149 150 138 174 170 135 162 140 122 178 215 173 155 153 151 153 156 161 165 156
353 352 353 354 355 354 354 354 355 356 355 353 349 344 342 344 348 349 351 348 345 347 345 357 4 355 347 343 337 330 339 40 252 243 79 123 171 188 188 179 179 190 203 210 207 203 220 256 215 207 208 222 239 236 240 231 227 243 216 225 231 180 195 191 144 158 154 136 138 143 152 170 145 146 192 170 159 199 199 166 159 154 153 159 158 162 167 153
351 352 352 353 353 352 351 351 352 353 353 352 348 343 340 341 344 347 349 348 345 342 342 352 359 353 340 337 334 322 16 68 239 231 206 116 155 177 186 186 184 196 211 208 204 201 211 231 209 213 214 226 230 227 238 227 217 245 249 234 231 210 204 159 150 165 150 138 148 156 154 140 135 196 201 188 188 217 166 152 155 156 155 157 157 163 165 151
349 350 351 351 351 350 349 349 350 351 351 350 346 341 337 338 341 345 346 347 345 338 334 334 348 352 340 334 333 345 75 264 241 208 163 109 149 168 173 184 190 196 203 196 188 186 183 189 203 213 220 232 230 233 246 238 225 235 254 258 241 211 211 169 153 167 156 154 161 149 132 145 168 187 188 195 175 185 152 147 150 157 155 156 160 167 164 151
347 349 349 350 349 348 347 346 347 348 348 347 345 340 335 335 337 341 344 345 345 338 328 324 338 345 342 336 320 5 205 245 215 178 164 121 133 168 173 182 193 195 193 192 188 182 176 193 213 215 225 234 228 230 238 246 245 239 243 256 253 213 209 162 149 161 156 156 149 139 146 171 178 160 174 192 151 159 163 144 148 155 157 162 165 168 164 152
346 348 349 349 348 346 345 344 345 345 345 344 343 339 334 331 333 339 342 342 343 336 323 325 335 343 347 327 297 16 231 232 185 173 166 141 135 164 185 190 194 194 193 198 193 184 183 197 211 206 227 246 246 247 237 233 245 243 241 242 246 236 219 154 150 156 147 153 148 147 168 176 176 151 172 190 154 160 161 144 149 156 162 168 168 169 164 157
345 347 348 348 346 344 344 343 343 342 342 341 339 338 333 329 330 335 337 339 339 332 321 329 337 345 352 339 69 66 232 214 181 196 179 158 152 158 189 198 197 193 193 198 194 195 202 206 207 206 255 264 253 257 244 229 250 266 268 259 248 240 230 171 154 153 144 159 164 160 176 166 164 172 206 193 160 160 164 150 152 159 165 170 172 171 163 163
344 346 346 345 344 344 342 341 340 339 339 337 336 335 332 328 328 331 333 334 335 331 322 329 340 348 359 24 102 192 243 163 157 209 191 176 179 178 186 194 196 192 192 193 199 205 213 225 242 317 282 276 265 267 260 247 268 283 284 284 267 249 241 187 160 160 144 161 180 161 151 136 124 214 234 170 157 166 166 155 158 162 164 171 175 170 160 165
343 345 344 344 344 343 341 340 338 337 336 334 331 331 331 327 326 328 327 328 331 329 318 330 350 359 26 23 195 224 267 315 327 236 194 199 241 257 198 185 191 194 195 192 205 211 217 231 245 251 253 290 302 281 280 285 308 304 295 284 272 292 271 206 167 168 151 157 183 140 101 138 162 219 221 150 153 162 159 155 161 163 164 172 176 167 158 165
343 344 344 342 343 342 340 338 336 335 334 331 328 327 329 326 326 325 321 322 325 322 311 326 342 346 69 290 230 248 303 304 301 272 198 212 247 246 211 201 206 206 203 200 210 214 218 232 239 244 254 272 287 282 299 312 328 314 309 285 271 345 303 235 167 165 163 158 170 145 104 220 209 222 205 155 156 153 153 158 162 163 166 174 178 169 162 167
344 345 343 342 342 341 339 338 335 334 333 329 325 325 326 325 325 319 315 314 315 313 296 314 319 174 112 264 264 291 307 276 252 243 207 204 225 222 209 214 217 216 211 207 217 223 228 247 254 256 259 246 256 296 310 316 327 307 314 318 266 111 273 268 164 160 172 174 171 159 135 204 208 221 197 167 164 153 156 162 162 166 169 175 180 172 169 171
345 344 343 342 341 339 338 337 335 334 333 329 325 325 325 324 320 312 308 306 306 289 282 317 288 182 61 281 283 319 302 246 240 238 223 211 207 197 204 209 208 211 212 209 222 242 249 261 261 254 260 247 268 328 322 319 321 312 308 319 313 179 255 285 248 172 166 183 184 170 132 191 201 205 185 170 170 159 160 165 166 171 172 176 182 175 174 174
346 345 343 342 340 339 338 336 336 335 333 330 327 325 325 324 319 307 298 298 288 259 278 344 199 181 25 286 292 318 254 219 233 230 218 218 214 223 214 208 204 202 207 212 222 239 251 262 264 255 251 246 273 324 342 335 319 353 140 271 287 225 257 289 283 221 159 158 198 197 152 180 189 180 172 168 170 163 163 167 168 171 174 177 181 178 177 174
346 346 344 342 340 338 337 337 337 336 334 332 331 329 332 336 328 309 292 308 225 249 268 8 84 153 266 284 296 298 254 204 215 223 239 250 230 252 240 206 207 193 199 216 226 233 242 247 255 260 236 203 185 157 327 296 280 324 348 251 261 228 225 239 282 268 170 158 197 210 172 165 166 161 165 169 170 167 167 171 169 170 175 175 176 179 179 176
346 346 344 342 340 338 337 338 338 337 334 332 333 333 339 352 353 38 91 89 94 32 343 290 348 79 262 288 295 295 297 203 224 299 304 293 223 237 248 188 210 178 177 227 233 229 218 233 273 319 266 202 198 167 176 227 216 252 272 260 281 275 242 235 255 271 182 173 192 196 174 163 161 160 167 170 171 173 173 172 170 171 176 174 173 178 180 178
347 346 344 342 340 338 337 337 339 339 334 331 336 340 348 4 16 87 86 83 96 50 323 234 173 117 295 290 288 300 309 294 287 272 255 273 210 223 251 184 200 159 138 101 246 222 188 250 310 273 265 215 216 205 181 229 258 248 259 256 280 288 267 249 257 258 204 191 195 187 173 163 163 166 170 171 172 174 175 173 169 173 178 177 175 180 181 180
347 345 344 342 340 339 337 337 339 339 335 332 339 346 4 14 11 18 3 4 193 232 261 250 211 260 292 288 293 305 314 320 309 228 222 193 164 156 354 37 67 142 140 151 217 219 177 213 249 223 233 219 226 228 199 235 278 279 284 282 284 281 275 268 269 270 215 187 207 190 170 165 169 173 174 173 172 171 172 175 174 174 178 179 179 181 182 182
346 345 344 342 340 338 336 336 337 339 337 336 343 350 350 0 26 322 325 301 261 234 244 260 246 258 269 269 279 289 320 358 344 267 208 176 140 109 323 26 67 322 197 173 195 211 171 199 236 230 232 234 236 236 219 229 252 266 273 278 287 274 274 275 273 279 247 203 221 190 165 171 176 176 176 173 173 174 172 174 178 179 179 178 181 182 181 180
345 344 342 341 339 336 335 334 335 338 344 345 348 344 283 324 84 355 335 310 290 255 236 260 254 257 263 263 265 261 118 9 323 312 197 165 116 124 222 102 125 236 231 192 188 132 186 221 236 232 231 243 251 243 231 230 235 249 256 265 277 265 280 280 271 280 258 230 226 187 169 180 182 175 176 177 178 177 175 176 179 180 178 176 180 182 179 178
344 341 341 340 335 333 332 333 334 342 352 340 324 300 307 6 30 355 348 279 291 281 246 249 241 250 263 268 261 223 115 201 263 279 202 144 86 157 144 143 184 213 206 195 187 155 192 244 235 228 223 227 244 245 235 236 234 236 241 244 259 256 267 274 278 321 316 304 241 192 174 180 181 173 178 184 181 175 177 181 179 180 180 177 179 179 177 179
340 339 341 338 333 332 330 330 334 350 347 331 310 324 353 17 8 2 12 206 285 285 247 231 232 240 252 264 220 148 126 205 202 234 200 143 122 161 136 168 189 210 214 197 197 192 207 236 230 221 227 227 234 245 239 238 244 240 232 227 249 256 249 251 277 316 320 310 255 183 152 171 176 175 186 186 179 176 179 181 180 185 184 176 176 177 178 180
339 338 339 338 335 329 327 329 337 348 341 332 350 356 1 6 360 9 37 38 302 285 250 234 229 237 267 199 169 161 110 249 242 213 183 156 146 132 110 215 186 214 227 201 196 208 224 236 233 211 222 236 239 248 241 225 239 256 237 223 235 250 253 256 271 304 329 311 289 117 104 237 196 184 186 178 178 182 179 181 184 186 185 180 180 180 179 180
339 337 337 338 335 331 331 332 337 338 333 333 3 353 350 351 347 355 30 55 332 285 227 328 176 216 292 115 160 91 57 300 278 204 156 149 136 119 129 303 321 230 228 206 194 208 224 228 229 214 208 221 230 245 245 226 226 257 241 225 233 244 254 260 266 275 258 258 286 84 118 197 213 203 192 178 181 182 178 186 187 184 185 187 187 183 179 179
338 336 336 336 336 337 333 308 326 334 323 330 346 345 344 340 334 343 35 60 358 279 182 319 335 355 297 260 100 76 87 270 299 357 159 155 125 84 135 261 305 266 271 36 17 243 237 232 231 225 210 210 218 234 241 224 213 249 247 240 247 252 256 260 260 247 235 253 315 73 121 136 188 214 204 187 181 179 183 190 188 187 189 192 192 187 181 180
335 336 335 333 334 335 314 298 322 328 326 337 337 336 337 330 327 344 93 75 25 156 169 286 310 311 286 3 78 126 197 220 315 300 227 152 124 70 95 230 217 254 273 76 294 269 272 268 250 239 232 229 215 217 228 221 217 239 246 251 258 258 261 266 254 244 257 276 297 320 126 124 215 213 197 192 183 180 191 194 191 191 191 192 193 190 185 183
334 336 336 330 331 334 301 302 307 303 334 343 339 331 327 325 332 49 101 81 85 286 289 137 337 295 274 42 40 218 225 158 165 259 250 135 159 79 137 217 198 281 279 147 222 267 259 241 258 294 287 245 227 225 223 215 223 236 237 249 263 265 269 290 200 227 262 253 254 262 160 135 272 226 181 183 187 190 197 196 196 196 192 191 191 190 187 185
335 337 337 329 329 339 306 296 286 308 342 339 333 326 321 326 22 80 43 89 130 281 264 9 346 298 113 56 307 254 225 192 177 236 1 43 349 22 92 236 85 351 312 56 252 269 279 266 243 264 253 234 252 264 237 212 221 240 243 249 264 283 300 4 68 94 51 264 248 247 191 139 269 253 182 180 193 194 194 195 199 199 196 194 191 190 187 184
336 339 337 326 322 320 297 291 290 324 325 324 328 327 328 359 80 90 55 113 167 315 275 254 297 212 145 157 243 242 214 264 105 69 24 22 13 9 9 6 25 24 355 355 328 301 311 324 290 255 255 271 287 292 283 239 216 224 231 233 261 300 331 343 360 46 143 265 250 231 101 117 167 262 204 194 199 192 188 190 193 195 195 194 192 191 188 185
342 342 336 322 312 294 271 288 331 311 315 332 336 338 39 51 27 73 46 336 341 302 275 239 228 199 154 160 201 194 170 27 50 82 79 69 48 34 43 31 352 29 6 323 331 333 312 302 310 275 256 4 339 310 309 319 230 197 184 111 202 290 318 300 317 313 203 256 251 173 66 100 216 249 209 198 205 200 198 196 189 189 191 192 192 192 190 185
349 344 335 319 308 295 284 307 333 324 329 341 349 23 80 73 39 16 357 356 20 247 287 315 317 40 68 43 16 177 88 32 32 67 74 78 78 59 45 27 12 63 144 274 13 359 322 312 344 354 15 20 18 16 339 322 332 237 184 139 147 171 146 249 268 283 243 270 267 140 89 258 263 262 209 194 199 200 207 210 196 191 190 190 192 190 188 187
355 349 331 304 300 299 294 301 316 317 326 341 13 59 53 68 39 358 16 11 345 320 346 343 324 0 50 33 248 81 46 22 12 48 53 49 51 36 32 21 13 22 118 65 45 13 355 304 353 23 335 339 17 30 308 285 303 278 203 145 140 164 160 192 217 217 228 275 291 43 96 217 217 244 215 189 191 194 202 209 201 199 197 193 193 189 187 187
355 347 320 298 302 304 292 287 298 306 322 354 49 61 53 64 353 344 358 333 327 346 347 344 349 23 0 328 339 64 61 12 357 49 65 62 52 22 23 17 5 6 47 57 6 336 18 256 298 357 307 352 9 343 318 331 327 278 199 110 146 190 160 161 195 190 178 271 303 340 209 218 209 260 259 189 180 190 199 201 192 198 205 197 192 191 189 190
351 348 324 297 308 306 280 269 267 278 332 42 57 54 63 72 338 321 320 313 328 342 339 355 25 35 346 331 13 35 53 71 30 64 83 79 59 26 21 16 4 10 43 80 37 350 10 277 302 333 355 58 6 327 341 26 340 297 17 42 232 200 138 134 249 231 125 159 274 268 257 286 305 295 289 263 205 190 192 198 196 196 197 190 188 193 193 191
350 351 332 306 322 21 114 99 218 232 70 69 68 51 126 79 1 318 324 325 328 347 10 36 21 15 16 13 3 358 23 41 30 51 76 64 39 7 0 1 5 7 14 94 135 128 121 279 313 357 13 15 348 326 17 65 29 21 344 305 285 234 118 118 185 337 64 162 269 278 253 288 319 288 292 291 267 236 193 191 202 202 191 187 190 192 194 193
344 346 326 316 352 80 67 90 170 166 75 57 35 341 323 43 25 13 4 338 330 15 46 64 17 20 44 35 354 350 17 24 11 40 58 49 28 349 354 353 353 359 1 29 72 34 64 302 313 35 23 344 348 359 9 5 15 44 293 310 327 1 48 32 145 197 233 190 266 293 283 267 229 242 286 285 266 261 232 190 196 202 191 186 192 192 194 195
346 356 325 332 16 62 45 141 163 93 67 44 344 340 13 46 14 82 72 14 352 43 51 42 26 30 46 55 17 356 18 35 34 51 60 45 21 317 353 354 336 355 14 44 46 326 34 18 285 6 28 351 349 26 15 341 349 2 2 354 355 330 293 300 218 180 167 195 233 306 322 288 244 262 297 294 277 269 263 217 189 195 190 185 192 193 193 194
2 32 289 331 10 43 186 149 91 51 84 211 252 6 34 54 345 9 51 37 18 54 51 38 37 34 29 40 40 10 9 32 48 62 51 46 99 315 353 359 329 347 24 50 44 355 22 44 284 314 6 16 32 37 22 350 338 344 359 11 4 346 338 316 272 204 140 165 181 220 274 278 309 336 338 328 321 295 272 252 200 192 190 186 190 192 190 191
11 43 269 333 2 268 105 65 24 71 151 269 320 27 29 51 21 13 29 33 36 33 34 61 61 51 35 29 32 17 7 30 57 71 44 39 96 40 349 357 350 354 17 33 33 15 11 52 305 323 338 4 70 13 331 305 288 338 34 24 9 355 357 356 324 322 11 179 180 186 229 264 6 1 350 342 339 328 299 264 214 190 188 190 192 191 189 188
30 35 302 344 337 271 57 32 293 189 116 2 115 68 37 49 38 27 26 26 32 21 15 47 57 51 51 36 29 23 27 41 52 66 74 54 75 81 358 11 27 47 67 52 348 338 4 67 357 315 286 282 277 269 299 327 357 69 58 29 5 0 11 7 321 316 329 314 279 197 231 237 16 9 358 349 341 341 340 307 208 191 189 192 193 189 185 185
41 301 333 3 357 287 82 20 321 3 29 14 75 69 54 52 38 36 36 26 22 15 12 25 30 34 43 32 31 30 32 53 55 54 79 59 59 71 40 34 41 53 70 68 314 328 3 46 0 312 284 300 300 243 91 50 43 43 28 11 2 354 348 332 296 285 310 345 351 345 277 271 341 360 359 350 343 350 5 17 31 157 184 185 187 184 183 185
346 270 310 9 22 50 82 23 353 24 12 14 44 50 54 60 42 41 49 34 14 11 17 18 26 36 27 22 45 42 34 55 58 41 38 44 44 36 22 22 44 65 74 125 266 339 358 43 36 0 334 342 5 16 7 15 23 20 341 345 347 342 340 337 328 321 348 36 27 7 282 287 320 340 354 351 350 1 11 18 29 33 37 55 62 79 123 174
339 254 258 348 23 50 79 31 64 56 20 19 35 25 20 45 38 37 58 48 20 23 40 23 31 49 39 31 48 47 40 50 56 39 36 27 16 15 10 7 22 63 83 82 74 63 67 76 88 86 55 319 341 4 331 326 336 336 332 336 337 342 343 341 345 354 344 355 19 36 251 293 315 328 352 355 353 6 11 13 27 34 35 41 44 49 55 52
5 33 311 327 6 37 43 3 65 71 27 27 38 12 10 25 9 12 41 47 22 29 52 35 26 41 42 36 43 41 33 38 46 49 53 33 7 351 357 4 10 26 62 66 58 70 104 75 116 141 153 206 221 226 257 285 307 320 330 334 334 334 332 333 352 334 314 324 333 224 237 312 322 323 344 359 356 7 13 11 20 28 29 32 35 45 54 53
62 34 16 342 334 8 16 14 47 58 29 53 63 10 23 36 15 2 15 27 25 26 48 44 32 34 33 30 42 31 16 31 40 30 30 37 20 346 349 1 13 23 42 58 60 76 78 20 349 154 194 228 232 258 292 312 320 323 327 328 329 325 319 321 317 297 312 338 308 273 300 323 318 321 343 4 359 8 17 12 14 21 23 26 30 40 46 45
39 31 356 6 293 328 355 13 59 55 34 48 58 28 40 43 30 17 8 14 31 26 32 43 32 31 31 28 42 24 10 27 34 14 9 13 14 6 354 349 5 20 25 31 50 76 88 302 319 342 315 306 322 329 328 326 320 319 321 320 322 320 311 308 306 299 307 307 274 288 319 317 316 337 353 2 7 18 28 21 16 16 18 23 25 33 41 39
24 17 325 0 5 258 323 16 64 61 39 39 45 31 44 46 36 32 16 14 33 27 39 53 28 21 27 29 44 43 25 30 16 359 5 0 358 21 4 334 343 11 19 22 17 52 91 322 332 352 338 331 339 335 328 327 322 317 318 319 320 317 306 302 298 291 290 274 265 287 318 312 317 347 347 340 6 23 36 36 26 14 16 25 24 26 34 35
32 2 318 355 352 318 8 31 52 65 42 37 46 14 27 51 43 39 38 38 33 19 37 53 31 18 23 30 50 59 44 60 26 351 356 354 352 12 9 339 343 356 8 17 359 28 82 324 326 16 0 324 325 333 329 328 325 320 321 318 314 314 313 307 298 294 301 290 280 305 333 317 311 349 16 7 12 29 37 39 35 15 11 23 23 20 27 29
359 280 313 50 359 345 22 45 42 68 47 24 26 0 16 39 32 39 50 37 43 46 35 41 38 24 19 29 41 33 12 27 17 340 324 320 325 329 315 339 354 350 352 356 337 10 91 239 318 48 22 293 309 332 328 330 334 329 317 293 290 303 330 324 319 341 349 314 300 320 342 291 299 345 25 25 27 46 43 39 42 25 14 22 20 14 20 25
3 326 352 81 87 351 13 54 37 63 64 22 27 27 34 44 34 48 56 10 30 51 30 37 56 41 22 28 18 350 349 5 356 330 313 299 299 288 270 285 306 307 304 311 306 287 158 158 135 93 146 284 318 340 336 346 347 318 279 268 300 323 338 330 332 0 8 343 317 276 252 270 299 350 30 23 26 48 49 41 44 33 19 20 14 11 20 22